Mackall AAF, NC

9:25 PM EDT on June 28, 2017 (GMT -0400)
Mackall Army Air Field

Weather History for KHFF - December, 2012

Change the Weather History Date:

Wednesday, December 12, 2012

  Actual Average Record
Temperature  
Mean Temperature 44 °F -  
Max Temperature 50 °F 55 °F 78 °F (2007)
Min Temperature 38 °F 34 °F 21 °F (2014)
Degree Days  
Heating Degree Days 20    
Moisture  
Dew Point 37 °F    
Average Humidity 76    
Maximum Humidity 97    
Minimum Humidity 57    
Precipitation  
Precipitation 0.43 in - - ()
Sea Level Pressure  
Sea Level Pressure 30.23 in    
Wind  
Wind Speed 9 mph (NNE)    
Max Wind Speed 15 mph    
Max Gust Speed 25 mph    
Visibility 9 miles    
Events Rain    
Averages and records for this station are not official NWS values.
T = Trace of Precipitation, MM = Missing Value Source: NWS Daily Summary

Daily Weather History Graph

Daily Weather History Graph

Search for Another Location

Airport or City:

Trip Planner

Search our weather history database for the weather conditions in past years. The results will help you decide how hot, cold, wet, or windy it might be!

Date:

Astronomy

Dec. 12, 2012 Rise Set
Actual Time 7:17 AM EST 5:06 PM EST
Civil Twilight 6:48 AM EST 5:35 PM EST
Nautical Twilight 6:17 AM EST 6:06 PM EST
Astronomical Twilight 5:46 AM EST 6:37 PM EST
Moon 6:20 AM EST (12/12) 4:41 PM EST (12/12)
Length of Visible Light 10h 46m
Length of Day
9h 49m
Waning Crescent, 1% of the Moon is Illuminated
Dec 12
Waning Crescent
Dec 13
New
Dec 20
First Quarter
Dec 28
Full
Jan 4
Last Quarter

Hourly Weather History & Observations

Time (EST) Temp. Windchill Dew Point Humidity Pressure Visibility Wind Dir Wind Speed Gust Speed Precip Events Conditions
12:28 AM 50.0 °F - 35.6 °F 58% 30.13 in 10.0 mi North 8.1 mph - N/A   Mostly Cloudy
12:47 AM 50.0 °F - 35.6 °F 58% 30.14 in 10.0 mi North 9.2 mph - N/A   Mostly Cloudy
12:55 AM 49.5 °F - 34.7 °F 57% 30.13 in 10.0 mi North 10.4 mph - N/A   Mostly Cloudy
12:56 AM 50.0 °F - 35.6 °F 58% 30.13 in 10.0 mi North 9.2 mph - N/A Rain Light Rain
1:38 AM 48.2 °F - 35.6 °F 62% 30.14 in 10.0 mi Variable 5.8 mph - N/A   Mostly Cloudy
1:55 AM 48.2 °F - 35.6 °F 62% 30.15 in 10.0 mi NNE 8.1 mph - N/A   Mostly Cloudy
2:18 AM 48.2 °F - 35.6 °F 62% 30.16 in 10.0 mi North 5.8 mph - N/A   Mostly Cloudy
2:55 AM 48.4 °F - 35.2 °F 60% 30.15 in 10.0 mi NNE 6.9 mph - N/A   Mostly Cloudy
3:17 AM 48.2 °F - 35.6 °F 62% 30.15 in 10.0 mi NE 8.1 mph - N/A Rain Light Rain
3:55 AM 47.7 °F - 36.5 °F 65% 30.17 in 10.0 mi NE 8.1 mph - N/A Rain Light Rain Showers
4:09 AM 48.2 °F - 35.6 °F 62% 30.17 in 10.0 mi NNE 9.2 mph - N/A   Overcast
4:55 AM 47.3 °F - 35.6 °F 64% 30.19 in 10.0 mi NNE 10.4 mph - N/A   Overcast
5:55 AM 47.1 °F - 36.1 °F 66% 30.21 in 10.0 mi Variable 4.6 mph - N/A   Overcast
6:22 AM 46.4 °F 42.9 °F 35.6 °F 66% 30.22 in 10.0 mi NNE 6.9 mph - N/A Rain Light Rain
6:54 AM 46.4 °F 43.5 °F 39.2 °F 76% 30.22 in 10.0 mi North 5.8 mph - N/A   Overcast
6:55 AM 45.9 °F 42.3 °F 38.8 °F 76% 30.22 in 10.0 mi Variable 6.9 mph - N/A   Overcast
7:55 AM 46.8 °F - 38.7 °F 73% 30.24 in 10.0 mi North 6.9 mph - N/A   Overcast
8:55 AM 47.1 °F - 38.8 °F 73% 30.27 in 10.0 mi NNE 5.8 mph - N/A   Overcast
9:55 AM 48.4 °F - 38.7 °F 69% 30.26 in 10.0 mi NE 12.7 mph 18.4 mph N/A   Overcast
10:55 AM 48.4 °F - 38.1 °F 68% 30.28 in 10.0 mi NE 11.5 mph - N/A   Overcast
11:55 AM 47.8 °F - 37.9 °F 69% 30.27 in 10.0 mi NNE 13.8 mph 18.4 mph N/A   Overcast
12:55 PM 47.3 °F - 37.2 °F 68% 30.26 in 10.0 mi NNE 13.8 mph - N/A   Overcast
1:40 PM 46.4 °F 41.5 °F 37.4 °F 71% 30.26 in 10.0 mi NE 10.4 mph - N/A Rain Light Rain
1:55 PM 45.5 °F 39.2 °F 37.8 °F 74% 30.25 in 10.0 mi NE 13.8 mph 25.3 mph N/A Rain Light Rain
2:55 PM 44.8 °F 39.9 °F 37.6 °F 76% 30.27 in 10.0 mi NNE 9.2 mph - N/A Rain Light Rain
3:55 PM 42.4 °F 38.1 °F 39.6 °F 90% 30.28 in 7.0 mi NNE 6.9 mph - 0.06 in Rain Rain
4:32 PM 41.0 °F 35.8 °F 39.2 °F 93% 30.25 in 6.0 mi ENE 8.1 mph - N/A Rain Rain
4:55 PM 41.9 °F 40.0 °F 39.4 °F 91% 30.30 in 10.0 mi NNE 3.5 mph - 0.06 in Rain Light Rain
4:57 PM 42.8 °F 40.1 °F 39.2 °F 87% 30.30 in 9.0 mi Variable 4.6 mph - N/A Rain Light Rain
5:37 PM 41.0 °F 36.4 °F 39.2 °F 93% 30.28 in 10.0 mi NE 6.9 mph - N/A Rain Light Rain
5:55 PM 41.0 °F 38.0 °F 39.7 °F 95% 30.27 in 10.0 mi NE 4.6 mph - 0.02 in Rain Light Rain
6:55 PM 41.2 °F 37.3 °F 38.8 °F 91% 30.29 in 10.0 mi Variable 5.8 mph - 0.00 in Rain Light Rain
7:55 PM 40.8 °F 35.6 °F 39.9 °F 97% 30.32 in 6.0 mi North 8.1 mph - 0.06 in Rain Light Rain
8:55 PM 40.1 °F 32.4 °F 38.5 °F 94% 30.30 in 8.0 mi NNE 13.8 mph 20.7 mph 0.03 in Rain Light Rain
9:55 PM 39.6 °F 32.1 °F 37.8 °F 93% 30.30 in 8.0 mi NE 12.7 mph 18.4 mph 0.06 in Rain Rain
10:41 PM 39.2 °F 32.5 °F 37.4 °F 93% 30.30 in 7.0 mi NE 10.4 mph 16.1 mph N/A Rain Rain
10:55 PM 39.2 °F 32.5 °F 37.8 °F 95% 30.30 in 7.0 mi NNE 10.4 mph 18.4 mph 0.05 in Rain Rain
11:27 PM 39.2 °F 32.0 °F 37.4 °F 93% 30.26 in 7.0 mi NNE 11.5 mph 19.6 mph N/A Rain Rain
11:42 PM 39.2 °F 33.6 °F 37.4 °F 93% 30.30 in 8.0 mi North 8.1 mph 19.6 mph N/A Rain Rain
11:55 PM 38.8 °F 30.4 °F 37.6 °F 95% 30.29 in 8.0 mi NNE 15.0 mph 20.7 mph 0.09 in Rain Rain